Погода в Небеле

Россия / Иркутская область     56°21′08″N   107°06′19″E
темп.,
°C
ветер,
м/с
пор.,
м/с
влажн.,
%
обл.,
%
осадки,
мм/ч
давл.,
гПа
погр.,
м
18 мая, ср
ср1823:00+8юз229030 0.3 101018
02:00+7зюз229112 0.3 101117
05:00+9юз2283100 0.0 101135
08:00+13з3764100 0.0 1012440
11:00+17зсз474496 0.1 10112061
14:00+19зсз263898 0.1 10102464
17:00+20зюз464080 0.0 10091880
20:00+16зюз255571 0.1 1009146
19 мая, чт
чт1923:00+12ююз356576 0.0 100978
02:00+11зюз237289 0.3 100932
05:00+10зюз3482100 0.4 100969
08:00+14зсз497199 0.5 1010857
11:00+18зсз584343 0.0 10092026
14:00+16зсз474680 0.0 10091117
17:00+15зсз49546 0.0 10091325
20:00+15з49502 0.0 1008593
20 мая, пт
пт2023:00+10з226936 0.0 101037
02:00+9зюз22746 0.0 101019
05:00+7з227565 0.0 101016
08:00+14зсз134719 0.0 1010551
11:00+18ссз34305 0.0 10091629
14:00+20ссз342445 0.0 10081970
17:00+20ссз342351 0.0 10082099
20:00+15всв2444100 0.0 100873
21 мая, сб
сб2123:00+10ю115768 0.0 100910
02:00+11зюз2657100 0.0 1009166
05:00+9з1184100 0.2 100950
08:00+10з3992100 0.6 1009811
11:00+15сз5761100 0.2 10101486
14:00+18сз5733100 0.2 10092901
17:00+18зсз4633100 0.0 10082432
20:00+8зсз3128887 2.8 1010493
22 мая, вс
вс2223:00+7з399130 0.0 1010289
02:00+7з51289100 0.6 1009507
05:00+6зсз51090100 0.5 1010747
08:00+9зсз487420 0.8 10101076
11:00+12зсз575152 0.3 10081797
14:00+14сз5638100 0.3 10082409
17:00+14сз354090 0.0 10082022
20:00+12св115083 0.0 100817